This demonstration page uses our WeatherBlox Daily Observations layout. Learn more.

Left ArrowRight Arrow

44.8408, -93.29828

Hourly Observations for November 7, 2015

Temp ( °F °C ) Dew Point ( °F °C ) Humidity (%) Winds ( mph kmh ) Pressure ( in mb ) Visibility ( mi km ) Precip ( " mm )
12:53 am 00:53 Cloudy 40 4.4 30 -1.1 68 68 W 12 19 30.19 1022 10 16 0.00 0.00
1:53 am 01:53 Mostly Cloudy 39 3.9 28 -2.2 65 65 W 10 17 30.19 1023 10 16 0.00 0.00
2:53 am 02:53 Mostly Clear 38 3.3 27 -2.8 65 65 W 13 20 30.21 1023 10 16 0.00 0.00
3:53 am 03:53 Clear 36 2.2 27 -2.8 70 70 W 10 17 30.22 1023 10 16 0.00 0.00
4:53 am 04:53 Clear 34 1.1 27 -2.8 76 76 W 9 15 30.25 1024 10 16 0.00 0.00
5:53 am 05:53 Mostly Cloudy 34 1.1 26 -3.3 73 73 W 10 17 30.27 1025 10 16 0.00 0.00
6:53 am 06:53 Partly Cloudy 33 0.6 25 -3.9 72 72 W 7 11 30.28 1025 10 16 0.00 0.00
7:53 am 07:53 Partly Cloudy 35 1.7 26 -3.3 70 70 WSW 5 7 30.31 1026 9 14 0.00 0.00
8:53 am 08:53 Sunny 38 3.3 26 -3.3 62 62 W 9 15 30.32 1027 9 14 0.00 0.00
9:53 am 09:53 Sunny 41 5 26 -3.3 55 55 W 12 19 30.33 1027 10 16 0.00 0.00
10:53 am 10:53 Partly Cloudy 44 6.7 27 -2.8 51 51 W 13 20 30.35 1028 10 16 0.00 0.00
11:53 am 11:53 Mostly Sunny 46 7.8 28 -2.2 50 50 W 13 20 30.33 1027 10 16 0.00 0.00
12:53 pm 12:53 Sunny 48 8.9 29 -1.7 48 48 W 17 28 30.32 1027 10 16 0.00 0.00
1:53 pm 13:53 Partly Cloudy 49 9.4 30 -1.1 48 48 W 10 17 30.31 1026 10 16 0.00 0.00
2:53 pm 14:53 Partly Cloudy 50 10 29 -1.7 44 44 W 9 15 30.29 1026 10 16 0.00 0.00
3:53 pm 15:53 Mostly Sunny 49 9.4 27 -2.8 43 43 W 12 19 30.30 1026 10 16 0.00 0.00
4:53 pm 16:53 Sunny 48 8.9 27 -2.8 44 44 SW 5 7 30.30 1026 10 16 0.00 0.00
5:53 pm 17:53 Clear 47 8.3 28 -2.2 48 48 S 6 9 30.29 1026 10 16 0.00 0.00
6:53 pm 18:53 Clear 45 7.2 29 -1.7 54 54 S 7 11 30.30 1026 10 16 0.00 0.00
7:53 pm 19:53 Clear 44 6.7 29 -1.7 55 55 S 5 7 30.29 1026 10 16 0.00 0.00
8:53 pm 20:53 Clear 43 6.1 28 -2.2 56 56 S 5 7 30.28 1026 10 16 0.00 0.00
9:53 pm 21:53 Clear 43 6.1 28 -2.2 56 56 SSW 6 9 30.28 1026 10 16 0.00 0.00
10:53 pm 22:53 Clear 43 6.1 28 -2.2 56 56 SSW 7 11 30.27 1025 10 16 0.00 0.00
11:53 pm 23:53 Clear 43 6.1 27 -2.8 53 53 SSW 7 11 30.27 1025 10 16 0.00 0.00

Powered by AerisWeather